Location: G�migny
(47.9646°N, 1.6950°E)
Time: 13:25:38
(UTC+00:00)

ARGOS - Pass Details

Date: 23 October 2019
Orbit: 820 x 835 km, 98.5° (Epoch: 17 November)

Event Time Altitude Azimuth Distance (km) Brightness Sun altitude
Exits shadow 18:27:50 22° 60° (ENE) 1,746 4.4 -16.9°
Maximum altitude 18:27:54 22° 59° (ENE) 1,746 4.4 -16.9°
Drops below altitude 10° 18:31:59 10° 10° (N) 2,458 5.5 -17.6°
Sets 18:34:49 0° 356° (N) 3,396 6.4 -18.1°
